Time,TemperatureF,DewpointF,PressureIn,WindDirection,WindDirectionDegrees,WindSpeedMPH,WindSpeedGustMPH,Humidity,HourlyPrecipIn,Conditions,Clouds,dailyrainin,SoftwareType,DateUTC
2013-01-12 00:10:00,23.0,19.4,30.30,East,90,0.0,0.0,86,0.00,,,0.00,open2300-1.11,2013-01-12 08:10:00,
2013-01-12 00:20:00,22.8,19.2,30.30,East,90,0.0,114.1,86,0.00,,,0.00,open2300-1.11,2013-01-12 08:20:00,
2013-01-12 00:30:00,22.8,19.2,30.30,East,90,0.0,0.0,86,0.00,,,0.00,open2300-1.11,2013-01-12 08:30:00,
2013-01-12 00:40:00,23.5,20.2,30.31,East,90,0.0,0.0,87,0.00,,,0.00,open2300-1.11,2013-01-12 08:40:00,
2013-01-12 00:50:00,24.1,20.8,30.31,East,90,0.0,0.0,87,0.00,,,0.00,open2300-1.11,2013-01-12 08:50:00,
2013-01-12 01:10:00,24.1,20.8,30.31,East,90,0.0,0.0,87,0.00,,,0.00,open2300-1.11,2013-01-12 09:10:00,
2013-01-12 01:20:00,24.1,20.8,30.31,East,90,0.0,0.0,87,0.00,,,0.00,open2300-1.11,2013-01-12 09:20:00,
2013-01-12 01:30:00,23.7,20.4,30.31,East,90,0.0,0.0,87,0.00,,,0.00,open2300-1.11,2013-01-12 09:30:00,
2013-01-12 01:40:00,23.4,20.0,30.31,East,90,0.0,0.0,87,0.00,,,0.00,open2300-1.11,2013-01-12 09:40:00,
2013-01-12 01:50:00,23.4,20.0,30.31,East,90,0.0,114.1,87,0.00,,,0.00,open2300-1.11,2013-01-12 09:50:00,
2013-01-12 02:10:00,23.7,20.4,30.32,East,90,0.0,0.0,87,0.00,,,0.00,open2300-1.11,2013-01-12 10:10:00,
2013-01-12 02:20:00,23.9,20.6,30.31,East,90,0.0,0.0,87,0.00,,,0.00,open2300-1.11,2013-01-12 10:20:00,
2013-01-12 02:30:00,24.4,21.1,30.32,East,90,0.0,0.0,87,0.00,,,0.00,open2300-1.11,2013-01-12 10:30:00,
2013-01-12 02:40:00,24.6,21.3,30.32,East,90,0.0,0.0,87,0.00,,,0.00,open2300-1.11,2013-01-12 10:40:00,
2013-01-12 02:50:00,24.6,21.3,30.31,East,90,0.0,0.0,87,0.00,,,0.00,open2300-1.11,2013-01-12 10:50:00,
2013-01-12 03:10:00,23.9,20.6,30.32,ESE,112,0.0,114.1,87,0.00,,,0.00,open2300-1.11,2013-01-12 11:10:00,
2013-01-12 03:20:00,23.5,20.2,30.31,ESE,112,0.0,0.0,87,0.00,,,0.00,open2300-1.11,2013-01-12 11:20:00,
2013-01-12 03:30:00,23.4,20.0,30.31,ESE,112,0.0,0.0,87,0.00,,,0.00,open2300-1.11,2013-01-12 11:30:00,
2013-01-12 03:40:00,23.0,19.7,30.31,ESE,112,0.0,0.0,87,0.00,,,0.00,open2300-1.11,2013-01-12 11:40:00,
2013-01-12 03:50:00,22.8,19.5,30.31,ESE,112,0.0,114.1,87,0.00,,,0.00,open2300-1.11,2013-01-12 11:50:00,
2013-01-12 04:10:00,22.8,19.5,30.30,ESE,112,0.0,0.0,87,0.00,,,0.00,open2300-1.11,2013-01-12 12:10:00,
2013-01-12 04:20:00,22.5,18.9,30.30,East,90,0.0,114.1,86,0.00,,,0.00,open2300-1.11,2013-01-12 12:20:00,
2013-01-12 04:30:00,22.3,18.7,30.30,East,90,0.0,0.0,86,0.00,,,0.00,open2300-1.11,2013-01-12 12:30:00,
2013-01-12 04:40:00,22.1,18.5,30.30,East,90,0.0,0.0,86,0.00,,,0.00,open2300-1.11,2013-01-12 12:40:00,
2013-01-12 04:50:00,21.9,18.3,30.31,East,90,0.0,0.0,86,0.00,,,0.00,open2300-1.11,2013-01-12 12:50:00,
2013-01-12 05:10:00,21.6,18.0,30.30,East,90,0.0,0.0,86,0.00,,,0.00,open2300-1.11,2013-01-12 13:10:00,
2013-01-12 05:20:00,21.4,17.8,30.31,East,90,0.0,0.0,86,0.00,,,0.00,open2300-1.11,2013-01-12 13:20:00,
2013-01-12 05:30:00,21.4,17.8,30.31,East,90,0.0,0.0,86,0.00,,,0.00,open2300-1.11,2013-01-12 13:30:00,
2013-01-12 05:40:00,21.4,18.0,30.31,East,90,0.0,0.0,87,0.00,,,0.00,open2300-1.11,2013-01-12 13:40:00,
2013-01-12 05:50:00,21.4,17.8,30.31,East,90,0.0,114.1,86,0.00,,,0.00,open2300-1.11,2013-01-12 13:50:00,
2013-01-12 06:00:00,21.4,18.0,30.31,East,90,0.0,0.0,87,0.00,,,0.00,open2300-1.11,2013-01-12 14:00:00,
2013-01-12 06:10:00,21.0,17.4,30.31,East,90,0.0,114.1,86,0.00,,,0.00,open2300-1.11,2013-01-12 14:10:00,
2013-01-12 06:20:00,21.0,17.4,30.31,East,90,0.0,0.0,86,0.00,,,0.00,open2300-1.11,2013-01-12 14:20:00,
2013-01-12 06:30:00,20.8,17.2,30.31,East,90,0.0,0.0,86,0.00,,,0.00,open2300-1.11,2013-01-12 14:30:00,
2013-01-12 06:40:00,20.8,17.2,30.31,East,90,0.0,0.0,86,0.00,,,0.00,open2300-1.11,2013-01-12 14:40:00,
2013-01-12 06:50:00,21.0,17.4,30.31,East,90,0.0,0.0,86,0.00,,,0.00,open2300-1.11,2013-01-12 14:50:00,
2013-01-12 07:00:00,21.4,18.0,30.32,East,90,0.0,0.0,87,0.00,,,0.00,open2300-1.11,2013-01-12 15:00:00,
2013-01-12 07:10:00,21.9,18.6,30.32,East,90,0.0,0.0,87,0.00,,,0.00,open2300-1.11,2013-01-12 15:10:00,
2013-01-12 07:20:00,22.3,19.0,30.32,East,90,0.0,0.0,87,0.00,,,0.00,open2300-1.11,2013-01-12 15:20:00,
2013-01-12 07:30:00,22.6,19.3,30.33,East,90,0.0,0.0,87,0.00,,,0.00,open2300-1.11,2013-01-12 15:30:00,
2013-01-12 07:40:00,22.8,19.5,30.33,East,90,0.0,0.0,87,0.00,,,0.00,open2300-1.11,2013-01-12 15:40:00,
2013-01-12 07:50:00,22.8,19.5,30.33,East,90,0.0,0.0,87,0.00,,,0.00,open2300-1.11,2013-01-12 15:50:00,
2013-01-12 08:00:00,23.4,20.0,30.33,East,90,0.0,0.0,87,0.00,,,0.00,open2300-1.11,2013-01-12 16:00:00,
2013-01-12 08:10:00,23.7,20.4,30.34,East,90,0.0,0.0,87,0.00,,,0.00,open2300-1.11,2013-01-12 16:10:00,
2013-01-12 08:20:00,24.1,20.8,30.34,East,90,0.0,0.0,87,0.00,,,0.00,open2300-1.11,2013-01-12 16:20:00,
2013-01-12 08:30:00,24.4,21.1,30.35,East,90,0.0,0.0,87,0.00,,,0.00,open2300-1.11,2013-01-12 16:30:00,
2013-01-12 08:40:00,24.6,21.3,30.34,East,90,0.0,0.0,87,0.00,,,0.00,open2300-1.11,2013-01-12 16:40:00,
2013-01-12 08:50:00,24.8,21.5,30.35,East,90,0.0,0.0,87,0.00,,,0.00,open2300-1.11,2013-01-12 16:50:00,
2013-01-12 09:00:00,25.2,22.1,30.34,East,90,0.0,0.0,88,0.00,,,0.00,open2300-1.11,2013-01-12 17:00:00,
2013-01-12 09:10:00,25.3,22.3,30.34,East,90,0.0,0.0,88,0.00,,,0.00,open2300-1.11,2013-01-12 17:10:00,
2013-01-12 09:20:00,25.5,22.4,30.35,East,90,0.0,0.0,88,0.00,,,0.00,open2300-1.11,2013-01-12 17:20:00,
2013-01-12 09:30:00,25.7,22.6,30.35,East,90,0.0,0.0,88,0.00,,,0.00,open2300-1.11,2013-01-12 17:30:00,
2013-01-12 09:40:00,25.9,22.8,30.35,East,90,0.0,0.0,88,0.00,,,0.00,open2300-1.11,2013-01-12 17:40:00,
2013-01-12 09:50:00,26.2,23.1,30.36,East,90,0.0,0.0,88,0.00,,,0.00,open2300-1.11,2013-01-12 17:50:00,
2013-01-12 10:00:00,26.4,23.3,30.36,East,90,0.0,0.0,88,0.00,,,0.00,open2300-1.11,2013-01-12 18:00:00,
2013-01-12 10:10:00,26.6,23.5,30.36,East,90,0.0,0.0,88,0.00,,,0.00,open2300-1.11,2013-01-12 18:10:00,
2013-01-12 10:20:00,26.8,23.7,30.36,East,90,0.0,0.0,88,0.00,,,0.00,open2300-1.11,2013-01-12 18:20:00,
2013-01-12 10:30:00,27.3,24.2,30.36,East,90,0.0,0.0,88,0.00,,,0.00,open2300-1.11,2013-01-12 18:30:00,
2013-01-12 10:40:00,27.5,24.4,30.36,East,90,0.0,0.0,88,0.00,,,0.00,open2300-1.11,2013-01-12 18:40:00,
2013-01-12 10:50:00,27.7,24.6,30.36,East,90,0.0,0.0,88,0.00,,,0.00,open2300-1.11,2013-01-12 18:50:00,
2013-01-12 11:00:00,28.0,24.9,30.36,East,90,0.0,0.0,88,0.00,,,0.00,open2300-1.11,2013-01-12 19:00:00,
2013-01-12 11:10:00,28.2,25.4,30.35,East,90,0.0,0.0,89,0.00,,,0.00,open2300-1.11,2013-01-12 19:10:00,
2013-01-12 11:20:00,28.6,25.8,30.35,East,90,0.0,0.0,89,0.00,,,0.00,open2300-1.11,2013-01-12 19:20:00,
2013-01-12 11:30:00,29.3,26.5,30.35,East,90,0.0,0.0,89,0.00,,,0.00,open2300-1.11,2013-01-12 19:30:00,
2013-01-12 11:40:00,29.8,27.0,30.35,East,90,0.0,0.0,89,0.00,,,0.00,open2300-1.11,2013-01-12 19:40:00,
2013-01-12 11:50:00,30.0,27.2,30.35,East,90,0.0,0.0,89,0.00,,,0.00,open2300-1.11,2013-01-12 19:50:00,
2013-01-12 12:00:00,30.0,27.2,30.35,NNW,337,0.0,114.1,89,0.00,,,0.00,open2300-1.11,2013-01-12 20:00:00,
2013-01-12 12:10:00,30.4,27.6,30.34,NNE,22,0.0,0.0,89,0.00,,,0.00,open2300-1.11,2013-01-12 20:10:00,
2013-01-12 12:20:00,31.3,28.5,30.34,NNE,22,0.0,0.0,89,0.00,,,0.00,open2300-1.11,2013-01-12 20:20:00,
2013-01-12 12:30:00,32.2,29.4,30.33,ESE,112,0.0,114.1,89,0.00,,,0.00,open2300-1.11,2013-01-12 20:30:00,
2013-01-12 12:40:00,32.7,29.8,30.33,SSE,157,0.0,0.0,89,0.00,,,0.00,open2300-1.11,2013-01-12 20:40:00,
2013-01-12 12:50:00,33.4,30.5,30.33,SSE,157,0.0,0.0,89,0.00,,,0.00,open2300-1.11,2013-01-12 20:50:00,
2013-01-12 13:00:00,34.3,31.4,30.33,West,270,0.0,0.0,89,0.00,,,0.00,open2300-1.11,2013-01-12 21:00:00,
2013-01-12 13:10:00,34.9,31.6,30.33,West,270,0.0,0.0,88,0.00,,,0.00,open2300-1.11,2013-01-12 21:10:00,
2013-01-12 13:20:00,34.9,30.7,30.33,WNW,292,0.0,4.9,85,0.00,,,0.00,open2300-1.11,2013-01-12 21:20:00,
2013-01-12 13:30:00,34.3,30.2,30.33,NW,315,0.0,6.0,85,0.00,,,0.00,open2300-1.11,2013-01-12 21:30:00,
2013-01-12 13:40:00,33.6,29.2,30.33,NNW,337,2.7,2.7,84,0.00,,,0.00,open2300-1.11,2013-01-12 21:40:00,
2013-01-12 13:50:00,32.9,28.9,30.33,WSW,247,0.0,2.7,85,0.00,,,0.00,open2300-1.11,2013-01-12 21:50:00,
2013-01-12 14:00:00,33.3,28.9,30.33,West,270,0.0,1.3,84,0.00,,,0.00,open2300-1.11,2013-01-12 22:00:00,
2013-01-12 14:10:00,33.4,29.0,30.33,NW,315,0.0,4.5,84,0.00,,,0.00,open2300-1.11,2013-01-12 22:10:00,
2013-01-12 14:20:00,33.6,29.2,30.34,NNW,337,0.0,3.1,84,0.00,,,0.00,open2300-1.11,2013-01-12 22:20:00,
2013-01-12 14:30:00,33.6,29.2,30.34,NW,315,0.0,5.8,84,0.00,,,0.00,open2300-1.11,2013-01-12 22:30:00,
2013-01-12 14:40:00,32.7,28.4,30.34,North,0,0.7,6.7,84,0.00,,,0.00,open2300-1.11,2013-01-12 22:40:00,
2013-01-12 14:50:00,32.2,27.9,30.35,NW,315,0.9,9.2,84,0.00,,,0.00,open2300-1.11,2013-01-12 22:50:00,
2013-01-12 15:00:00,31.6,27.4,30.35,WNW,292,0.0,5.8,84,0.00,,,0.00,open2300-1.11,2013-01-12 23:00:00,
2013-01-12 15:10:00,31.3,27.3,30.35,NW,315,0.0,6.9,85,0.00,,,0.00,open2300-1.11,2013-01-12 23:10:00,
2013-01-12 15:20:00,31.3,27.3,30.35,NNW,337,0.0,6.0,85,0.00,,,0.00,open2300-1.11,2013-01-12 23:20:00,
2013-01-12 15:30:00,30.9,27.0,30.35,WNW,292,0.0,8.1,85,0.00,,,0.00,open2300-1.11,2013-01-12 23:30:00,
2013-01-12 15:40:00,30.6,26.9,30.35,NW,315,0.0,6.9,86,0.00,,,0.00,open2300-1.11,2013-01-12 23:40:00,
2013-01-12 15:50:00,30.4,26.7,30.35,NNW,337,0.0,7.4,86,0.00,,,0.00,open2300-1.11,2013-01-12 23:50:00,
2013-01-12 16:00:00,30.4,26.7,30.35,NNW,337,0.0,0.0,86,0.00,,,0.00,open2300-1.11,2013-01-13 00:00:00,
2013-01-12 16:10:00,30.2,26.5,30.35,NNW,337,0.0,0.0,86,0.00,,,0.00,open2300-1.11,2013-01-13 00:10:00,
2013-01-12 16:20:00,30.0,26.4,30.35,NNW,337,0.0,0.0,86,0.00,,,0.00,open2300-1.11,2013-01-13 00:20:00,
2013-01-12 16:30:00,29.8,26.2,30.35,NNW,337,0.0,0.0,86,0.00,,,0.00,open2300-1.11,2013-01-13 00:30:00,
2013-01-12 16:40:00,29.7,26.0,30.35,NNW,337,0.0,0.0,86,0.00,,,0.00,open2300-1.11,2013-01-13 00:40:00,
2013-01-12 16:50:00,29.3,25.6,30.35,NNW,337,0.0,0.0,86,0.00,,,0.00,open2300-1.11,2013-01-13 00:50:00,
2013-01-12 17:00:00,28.9,25.6,30.35,NNW,337,0.0,0.0,87,0.00,,,0.00,open2300-1.11,2013-01-13 01:00:00,
2013-01-12 17:10:00,28.9,25.6,30.35,NNW,337,0.0,0.0,87,0.00,,,0.00,open2300-1.11,2013-01-13 01:10:00,
2013-01-12 17:20:00,29.1,25.7,30.35,NNW,337,0.0,0.0,87,0.00,,,0.00,open2300-1.11,2013-01-13 01:20:00,
2013-01-12 17:30:00,29.3,25.9,30.35,NNW,337,0.0,0.0,87,0.00,,,0.00,open2300-1.11,2013-01-13 01:30:00,
2013-01-12 17:40:00,29.3,25.9,30.36,NNW,337,0.0,0.0,87,0.00,,,0.00,open2300-1.11,2013-01-13 01:40:00,
2013-01-12 17:50:00,29.3,25.9,30.36,NNW,337,0.0,0.0,87,0.00,,,0.00,open2300-1.11,2013-01-13 01:50:00,
2013-01-12 18:00:00,29.1,25.7,30.36,NNW,337,0.0,0.0,87,0.00,,,0.00,open2300-1.11,2013-01-13 02:00:00,
2013-01-12 18:10:00,29.3,25.9,30.37,NNW,337,0.0,0.0,87,0.00,,,0.00,open2300-1.11,2013-01-13 02:10:00,
2013-01-12 18:20:00,29.1,26.0,30.36,NNW,337,0.0,0.0,88,0.00,,,0.00,open2300-1.11,2013-01-13 02:20:00,
2013-01-12 18:30:00,29.1,26.0,30.37,NNW,337,0.0,0.0,88,0.00,,,0.00,open2300-1.11,2013-01-13 02:30:00,
2013-01-12 18:40:00,29.1,26.0,30.36,NNW,337,0.0,0.0,88,0.00,,,0.00,open2300-1.11,2013-01-13 02:40:00,
2013-01-12 18:50:00,28.9,25.8,30.36,NNW,337,0.0,0.0,88,0.00,,,0.00,open2300-1.11,2013-01-13 02:50:00,
2013-01-12 19:00:00,28.6,25.5,30.37,NNW,337,0.0,0.0,88,0.00,,,0.00,open2300-1.11,2013-01-13 03:00:00,
2013-01-12 19:10:00,28.6,25.5,30.36,NNW,337,0.0,0.0,88,0.00,,,0.00,open2300-1.11,2013-01-13 03:10:00,
2013-01-12 19:20:00,28.6,25.5,30.36,NNW,337,0.0,0.0,88,0.00,,,0.00,open2300-1.11,2013-01-13 03:20:00,
2013-01-12 19:30:00,28.8,25.7,30.36,NNW,337,0.0,0.0,88,0.00,,,0.00,open2300-1.11,2013-01-13 03:30:00,
2013-01-12 19:40:00,28.8,25.7,30.36,NNW,337,0.0,0.0,88,0.00,,,0.00,open2300-1.11,2013-01-13 03:40:00,
2013-01-12 19:50:00,28.6,25.5,30.37,NNW,337,0.0,0.0,88,0.00,,,0.00,open2300-1.11,2013-01-13 03:50:00,
2013-01-12 20:00:00,28.6,25.5,30.37,NNW,337,0.0,0.0,88,0.00,,,0.00,open2300-1.11,2013-01-13 04:00:00,
2013-01-12 20:10:00,28.6,25.5,30.37,NNW,337,0.0,0.0,88,0.00,,,0.00,open2300-1.11,2013-01-13 04:10:00,
2013-01-12 20:20:00,28.6,25.5,30.38,NNW,337,0.0,0.0,88,0.00,,,0.00,open2300-1.11,2013-01-13 04:20:00,
2013-01-12 20:30:00,28.6,25.5,30.38,NNW,337,0.0,0.0,88,0.00,,,0.00,open2300-1.11,2013-01-13 04:30:00,
2013-01-12 20:40:00,28.4,25.3,30.38,NNW,337,0.0,0.0,88,0.00,,,0.00,open2300-1.11,2013-01-13 04:40:00,
2013-01-12 20:50:00,28.2,25.1,30.37,NNW,337,0.0,0.0,88,0.00,,,0.00,open2300-1.11,2013-01-13 04:50:00,
2013-01-12 21:00:00,28.4,25.3,30.38,NNW,337,0.0,0.0,88,0.00,,,0.00,open2300-1.11,2013-01-13 05:00:00,
2013-01-12 21:10:00,28.4,25.3,30.38,NNW,337,0.0,0.0,88,0.00,,,0.00,open2300-1.11,2013-01-13 05:10:00,
2013-01-12 21:20:00,28.6,25.5,30.38,NNW,337,0.0,0.0,88,0.00,,,0.00,open2300-1.11,2013-01-13 05:20:00,
2013-01-12 21:30:00,28.4,25.3,30.38,NNW,337,0.0,0.0,88,0.00,,,0.00,open2300-1.11,2013-01-13 05:30:00,
2013-01-12 21:40:00,28.6,25.5,30.38,NNW,337,0.0,0.0,88,0.00,,,0.00,open2300-1.11,2013-01-13 05:40:00,
2013-01-12 21:50:00,28.6,25.5,30.39,NNW,337,0.0,0.0,88,0.00,,,0.00,open2300-1.11,2013-01-13 05:50:00,
2013-01-12 22:00:00,28.6,25.5,30.38,NNW,337,0.0,0.0,88,0.00,,,0.00,open2300-1.11,2013-01-13 06:00:00,
2013-01-12 22:10:00,28.4,25.3,30.39,NNW,337,0.0,0.0,88,0.00,,,0.00,open2300-1.11,2013-01-13 06:10:00,
2013-01-12 22:20:00,28.2,24.8,30.39,NNW,337,0.0,0.0,87,0.00,,,0.00,open2300-1.11,2013-01-13 06:20:00,
2013-01-12 22:30:00,28.2,24.8,30.39,NNW,337,0.0,0.0,87,0.00,,,0.00,open2300-1.11,2013-01-13 06:30:00,
2013-01-12 22:40:00,28.0,24.7,30.39,NNW,337,0.0,0.0,87,0.00,,,0.00,open2300-1.11,2013-01-13 06:40:00,
2013-01-12 22:50:00,28.0,24.7,30.39,NNW,337,0.0,0.0,87,0.00,,,0.00,open2300-1.11,2013-01-13 06:50:00,
2013-01-12 23:10:00,28.0,24.7,30.40,NNW,337,0.0,0.0,87,0.00,,,0.00,open2300-1.11,2013-01-13 07:10:00,
2013-01-12 23:20:00,28.0,24.7,30.40,NNW,337,0.0,0.0,87,0.00,,,0.00,open2300-1.11,2013-01-13 07:20:00,
2013-01-12 23:30:00,27.9,24.5,30.40,NNW,337,0.0,0.0,87,0.00,,,0.00,open2300-1.11,2013-01-13 07:30:00,
2013-01-12 23:40:00,27.7,24.6,30.41,NNW,337,0.0,0.0,88,0.00,,,0.00,open2300-1.11,2013-01-13 07:40:00,
2013-01-12 23:50:00,27.9,24.8,30.41,NNW,337,0.0,0.0,88,0.00,,,0.00,open2300-1.11,2013-01-13 07:50:00,